Flag for Ukraine Weather past 2 weeks in Kyiv, Ukraine

Now
79 °F

Sunny.


Feels Like: 79 °F
Forecast: 64 / 85 °F
Wind: 8 mph from Northeast

Location: Kyiv

Current Time: Jul 25, 2014 at 8:07:43 PM

Latest Report: Jul 25, 2014 at 7:30 PM


Visibility: 10 mi

Pressure: 30.01 "Hg

Humidity: 45%

Dew point: 55 °F

Location of KyivLocation

Historic Weather in Kyiv — Graph

°F

Kyiv temperature yesterday

Maximum temperature yesterday: 81 °F (at 1:30 PM)
Minimum temperature yesterday: 61 °F (at 5:00 AM)
Average temperature yesterday: 72 °F

Past Weeks' High & Low Weather Summary

 TemperatureHumidityPressure
High86 °F (Jul 17, 2:30 PM)100% (Jul 10, 8:00 PM)30.07 "Hg (Jul 10, 8:00 PM)
Low57 °F (Jul 11, 3:00 AM)32% (Jul 25, 2:30 PM)29.65 "Hg (Jul 12, 2:30 PM)
Average71 °F74%29.91 "Hg
* Reported Jul 10 6:00 PM — Jul 25 6:30 PM, Kyiv, Weather by CustomWeather, © 2014

Note: Actual official high and low records may vary slightly from our data, if they occured in-between our weather recording intervals... More about our weather records

Advertising

Kyiv weather history for previous 24 hours

 ConditionsComfort  
Time TempWeatherWind HumidityBarometerVisibility
6:30 PM
Jul 25
81 °FSunny.6 mph42%30.01 "Hg10 mi
6:00 PM81 °FSunny.8 mph37%30.01 "Hg10 mi
5:30 PM81 °FSunny.10 mph39%30.01 "Hg10 mi
5:00 PM81 °FSunny.8 mph37%30.01 "Hg10 mi
4:30 PM82 °FSunny.10 mph37%30.01 "Hg10 mi
4:00 PM82 °FPassing clouds.8 mph35%30.01 "HgN/A
3:30 PM82 °FPassing clouds.8 mph35%30.01 "HgN/A
3:00 PM82 °FPassing clouds.10 mph35%30.01 "HgN/A
2:30 PM82 °FPassing clouds.8 mph32%30.01 "HgN/A
2:00 PM82 °FPassing clouds.8 mph35%30.01 "HgN/A
1:30 PM82 °FSunny.8 mph35%30.01 "Hg10 mi
1:00 PM82 °FPassing clouds.10 mph35%30.01 "HgN/A
12:30 PM81 °FPassing clouds.10 mph37%30.01 "HgN/A
12:00 PM81 °FPassing clouds.10 mph37%30.01 "HgN/A
11:30 AM81 °FPassing clouds.8 mph39%30.01 "HgN/A
11:00 AM79 °FSunny.10 mph45%30.01 "Hg10 mi
10:30 AM79 °FPassing clouds.10 mph45%30.01 "HgN/A
10:00 AM77 °FSunny.8 mph44%30.01 "Hg10 mi
9:30 AM75 °FSunny.8 mph50%30.01 "Hg10 mi
9:00 AM73 °FSunny.8 mph53%30.01 "Hg10 mi
8:30 AM72 °FSunny.6 mph57%30.01 "Hg10 mi
8:00 AM72 °FPassing clouds.6 mph57%30.01 "HgN/A
7:30 AM70 °FSunny.8 mph57%29.98 "Hg10 mi
7:00 AM68 °FSunny.8 mph56%29.98 "Hg10 mi
6:30 AM64 °FSunny.3 mph64%29.98 "Hg10 mi
6:00 AM64 °FClear.3 mph60%29.98 "Hg10 mi
5:30 AM63 °FClear.6 mph64%29.98 "Hg10 mi
5:00 AM63 °FClear.6 mph68%29.98 "Hg10 mi
4:30 AM61 °FClear.3 mph72%29.98 "Hg10 mi
4:00 AM64 °FClear.3 mph64%29.95 "Hg10 mi
3:30 AM64 °FClear.3 mph64%29.95 "Hg10 mi
3:00 AM64 °FClear.3 mph64%29.95 "Hg10 mi
2:30 AM63 °FClear.6 mph68%29.95 "Hg10 mi
2:00 AM64 °FClear.3 mph64%29.95 "Hg10 mi
1:30 AM64 °FClear.6 mph68%29.95 "Hg10 mi
1:00 AM66 °FClear.6 mph64%29.95 "Hg10 mi
12:30 AM66 °FClear.8 mph64%29.95 "Hg10 mi
12:00 AM66 °FClear.6 mph64%29.95 "Hg10 mi
11:30 PM
Jul 24
68 °FClear.6 mph64%29.95 "Hg10 mi
11:00 PM70 °FClear.6 mph60%29.95 "Hg10 mi
10:30 PM70 °FClear.6 mph60%29.95 "Hg10 mi
10:00 PM70 °FClear.6 mph60%29.95 "Hg10 mi
9:30 PM73 °FSunny.8 mph53%29.95 "Hg10 mi
9:00 PM75 °FSunny.8 mph47%29.95 "Hg10 mi
8:30 PM75 °FSunny.10 mph47%29.95 "Hg10 mi
8:00 PM75 °FSunny.10 mph50%29.92 "Hg10 mi
Weather by CustomWeather, © 2014

See weather overviewHow to use our weather pages